Weather History for State College, PA

Change the Weather History Date:

Saturday, January 18, 2014

  Actual Average Record
Temperature  
Mean Temperature 24 °F -  
Max Temperature 32 °F 31 °F 63 °F (1990)
Min Temperature 15 °F 16 °F -17 °F (1982)
Degree Days  
Heating Degree Days 42    
Moisture  
Dew Point 13 °F    
Average Humidity 65    
Maximum Humidity 85    
Minimum Humidity 46    
Precipitation  
Precipitation 0.00 in - - ()
Sea Level Pressure  
Sea Level Pressure 29.85 in    
Wind  
Wind Speed 9 mph (WSW)    
Max Wind Speed 17 mph    
Max Gust Speed 21 mph    
Visibility 8 miles    
Events Snow    
Averages and records for this station are not official NWS values.
T = Trace of Precipitation, MM = Missing Value Source: NWS Daily Summary

Daily Weather History Graph

Daily Weather History Graph

Search for Another Location

Airport:

Trip Planner

Search our weather history database for the weather conditions in past years. The results will help you decide how hot, cold, wet, or windy it might be!

Date:

Astronomy

Jan. 18, 2014 Rise Set
Actual Time 7:32 AM EST 5:11 PM EST
Civil Twilight 7:02 AM EST 5:41 PM EST
Nautical Twilight 6:28 AM EST 6:15 PM EST
Astronomical Twilight 5:55 AM EST 6:48 PM EST
Moon 7:53 PM EST (1/18) 8:29 AM EST (1/18)
Length of Visible Light 10h 39m
Length of Day
9h 39m
Waning Gibbous, 94% of the Moon is Illuminated
Jan 18
Waning Gibbous
Jan 24
Last Quarter
Jan 30
New
Feb 6
First Quarter
Feb 14
Full

Hourly Weather History & Observations

Time (EST) Temp. Windchill Dew Point Humidity Pressure Visibility Wind Dir Wind Speed Gust Speed Precip Events Conditions
12:15 AM 32.9 °F 27.5 °F 28.9 °F 85% 29.82 in 3.0 mi SW 5.8 mph - N/A Snow Light Snow
12:35 AM 32.5 °F 27.1 °F 27.5 °F 82% 29.81 in 7.0 mi SW 5.8 mph - N/A Snow Light Snow
12:55 AM 32.9 °F 25.9 °F 26.4 °F 77% 29.81 in 5.0 mi West 8.1 mph - N/A Snow Light Snow
1:15 AM 32.4 °F 24.0 °F 25.5 °F 76% 29.81 in 4.0 mi West 10.4 mph - N/A Snow Light Snow
1:35 AM 32.0 °F 24.2 °F 25.5 °F 77% 29.81 in 5.0 mi WSW 9.2 mph 17.3 mph N/A Snow Light Snow
1:55 AM 31.8 °F 22.3 °F 21.2 °F 65% 29.81 in 10.0 mi WSW 12.7 mph 18.4 mph N/A   Overcast
2:15 AM 31.1 °F 21.4 °F 22.1 °F 69% 29.82 in 7.0 mi WSW 12.7 mph - N/A Snow Light Snow
2:35 AM 30.0 °F 20.5 °F 22.8 °F 75% 29.82 in 3.0 mi WSW 11.5 mph 17.3 mph N/A Snow Light Snow
2:55 AM 29.3 °F 19.6 °F 23.7 °F 80% 29.83 in 1.2 mi WSW 11.5 mph - N/A Snow Snow
3:15 AM 28.9 °F 22.8 °F 24.6 °F 84% 29.82 in 1.8 mi WSW 5.8 mph - N/A Snow Light Snow
3:35 AM 28.9 °F 22.8 °F 24.4 °F 83% 29.82 in 2.0 mi SW 5.8 mph - N/A Snow Light Snow
3:55 AM 28.4 °F 18.0 °F 20.8 °F 73% 29.81 in 7.0 mi West 12.7 mph 18.4 mph N/A   Overcast
4:15 AM 28.2 °F 17.2 °F 18.7 °F 67% 29.81 in 10.0 mi West 13.8 mph 19.6 mph N/A   Overcast
4:35 AM 27.7 °F 20.4 °F 18.7 °F 69% 29.81 in 7.0 mi West 6.9 mph - N/A Snow Light Snow
4:55 AM 27.3 °F 19.1 °F 18.9 °F 70% 29.81 in 7.0 mi West 8.1 mph - N/A Snow Light Snow
5:15 AM 26.8 °F 18.5 °F 18.1 °F 70% 29.81 in 10.0 mi WSW 8.1 mph - N/A Snow Light Snow
5:35 AM 26.8 °F 19.3 °F 18.5 °F 71% 29.81 in 7.0 mi WSW 6.9 mph - N/A Snow Light Snow
5:53 AM 26.6 °F 14.7 °F 15.8 °F 64% 29.81 in 10.0 mi West 15.0 mph 20.7 mph N/A   Overcast
6:35 AM 24.8 °F 11.9 °F 14.0 °F 64% 29.82 in 5.0 mi West 16.1 mph - N/A Snow Light Snow
6:53 AM 23.0 °F 11.1 °F 12.2 °F 63% 29.83 in 7.0 mi WNW 12.7 mph 19.6 mph N/A Snow Light Snow
7:53 AM 21.2 °F 8.3 °F 6.8 °F 54% 29.84 in 10.0 mi West 13.8 mph 19.6 mph N/A   Mostly Cloudy
8:53 AM 19.4 °F 6.0 °F 6.8 °F 58% 29.87 in 8.0 mi West 13.8 mph - N/A   Mostly Cloudy
9:53 AM 21.2 °F 7.8 °F 6.8 °F 54% 29.89 in 10.0 mi West 15.0 mph - N/A   Mostly Cloudy
10:53 AM 21.2 °F 8.3 °F 6.8 °F 54% 29.90 in 10.0 mi West 13.8 mph - N/A   Scattered Clouds
11:53 AM 21.2 °F 8.3 °F 5.0 °F 50% 29.88 in 10.0 mi West 13.8 mph - N/A   Scattered Clouds
12:53 PM 21.2 °F 8.3 °F 3.2 °F 46% 29.86 in 10.0 mi WNW 13.8 mph - N/A   Scattered Clouds
1:53 PM 21.2 °F 9.5 °F 3.2 °F 46% 29.85 in 10.0 mi WSW 11.5 mph - N/A   Mostly Cloudy
3:53 PM 21.2 °F 9.5 °F 5.0 °F 50% 29.87 in 10.0 mi WSW 11.5 mph - N/A   Partly Cloudy
4:50 PM 19.4 °F 4.5 °F 5.0 °F 54% 29.89 in 10.0 mi WSW 17.3 mph - N/A   Partly Cloudy
4:53 PM 19.4 °F 4.5 °F 5.0 °F 54% 29.89 in 10.0 mi WSW 17.3 mph - N/A   Partly Cloudy
5:08 PM 19.4 °F 10.4 °F 5.0 °F 54% 29.90 in 10.0 mi West 6.9 mph - N/A   Mostly Cloudy
5:53 PM 19.4 °F 10.4 °F 5.0 °F 54% 29.91 in 10.0 mi West 6.9 mph - N/A   Mostly Cloudy
6:58 PM 19.4 °F 7.9 °F 6.8 °F 58% 29.91 in 10.0 mi West 10.4 mph - N/A   Overcast
7:58 PM 17.6 °F 9.3 °F 6.8 °F 63% 29.89 in 10.0 mi West 5.8 mph - N/A   Mostly Cloudy
8:58 PM 17.6 °F 7.3 °F 6.8 °F 63% 29.90 in 10.0 mi WSW 8.1 mph - N/A   Mostly Cloudy
9:55 PM 17.6 °F 9.3 °F 6.4 °F 62% 29.89 in 10.0 mi West 5.8 mph - N/A   Scattered Clouds
10:15 PM 16.7 °F 8.3 °F 6.4 °F 64% 29.89 in 10.0 mi WSW 5.8 mph - N/A   Clear
10:35 PM 15.4 °F 6.8 °F 6.8 °F 69% 29.89 in 10.0 mi SW 5.8 mph - N/A   Clear
10:55 PM 16.5 °F 8.1 °F 6.8 °F 66% 29.89 in 10.0 mi SW 5.8 mph - N/A   Clear
11:15 PM 16.5 °F 9.4 °F 6.8 °F 66% 29.89 in 10.0 mi South 4.6 mph - N/A   Clear
11:35 PM 16.7 °F - 7.0 °F 66% 29.87 in 10.0 mi Calm Calm - N/A   Mostly Cloudy
11:55 PM 16.7 °F 11.2 °F 6.8 °F 65% 29.86 in 10.0 mi South 3.5 mph - N/A   Overcast